北斗三号 M19 (BEIDOU 3M19)

导读

BEIDOU-3 M19 是中国北斗三号全球卫星导航系统中的重要组成部分,属于中圆地球轨道(MEO)卫星。该卫星于2020年发射,主要用于提供高精度定位、导航和授时服务。北斗三号系统由多颗地球静止轨道(GEO)、倾斜地球同步轨道(IGSO)和中圆轨道(MEO)卫星组成,M19 卫星在提升系统覆盖范围和定位精度方面发挥关键作用。其先进载荷和稳定性能增强了北斗在全球范围内的服务能力,支持交通运输、通信、农业、应急救援等多个领域应用。

Basic Information
目录编号:
44864
目录名称:
BEIDOU 3M19
国际标识:
2019-090A
轨道中心:
EARTH
卫星名称:
北斗三号 M19
卫星全名:
北斗三号 M19 (BEIDOU 3M19)
卫星状态:
在轨 (已飞行2372 天)
发射日期:
2019-12-16 UTC
国别 :
中国 (CN)
星等 :
--
Orbit Information
数据来源 国际轨道数据 AOE轨道数据
星历时间 2026-06-13T18:37:31+0800
1天前
查看轨道信息
2026-06-14T07:00:00+0800
12小时前
查看轨道信息
半长轴 27906.149km 27906.189km
偏心率 0.0017906 0.0017951
轨道倾角 56.555° 56.556°
近地点辐角 297.940° 297.891°
升交点赤经 62.915° 62.898°
平近点角 245.480° 231.221°
近地点 21478.043km 21477.957km
远地点 21577.981km 21578.147km
周期 773.232分钟 773.233分钟
每日圈数 1.862314 1.86231
Detailed Information
平衡模式:
三轴稳定
制造商(研发单位):
中国科学院
制造商所在国:
中国
使用方式:
暂无
工作目标:
为全球用户提供连续、稳定、可靠的北斗导航、定位服务
预期寿命:
12年
Satellite Introduction
北斗卫星导航系统是中国着眼于国家安全和经济社会发展需要,自主建设运行的全球卫星导航系统,是为全球用户提供全天候、全天时、高精度的定位、导航和授时服务的国家重要时空基础设施。该卫星仍在工作。
2D Orbit Map
3D Orbit Map
Orbit Altitude Analysis Chart
Orbit Inclination Analysis Chart
Orbit Comprehensive Analysis Chart
View Comprehensive Chart